Portada
METAR-TAF:

METAR-TAF

Aeroports :

Gilmer Municipal Airport (Fox Stephens Field)

Gilmer, Texas, Estats Units d'Amèrica

latitud: 32-41-56N, longitud: 094-56-55W, altitud: 127 m

Observació

L'informe es va fer fa 24 minuts, a les 04:15 UTC
Vent 5 kt del Nord/Nord-Oest
Temperatura 14°C
Humitat 94%
Pressió 1018 hPa
Visibilitat: 6.4 km
Cel cobert a una alçada de 500 ft
boirina

METAR: KJXI 120415Z AUTO 34005KT 4SM BR OVC005 14/13 A3005 RMK AO2 P0001 T01380133

Hora: 23:39 (04:39 UTC)


TAF: manca

Observacions i pronòstics meteorològics de més de 4000 aeroports (METAR i TAF).

Les estacions disponibles són els punts grocs i vermells al mapa.

Posi el ratolí al punt desitjat per veure el nom de l'estació.

Feu clic per veure les observacions i els pronòstics meteorològics.

Per canviar el mapa: feu clic els botons verds amb una creu de color negre per apropar; al botó verd amb un guió per allunyar la imatge; o en les fletxes verdes per a mapes adjacents.


METAR-TAF: